Change the Weather History Date:

Saturday, February 22, 2014

  Actual Average Record
Temperature  
Mean Temperature 10 °F -  
Max Temperature 17 °F 32 °F 17 °F (2014)
Min Temperature 3 °F 14 °F -13 °F (2015)
Degree Days  
Heating Degree Days 55    
Moisture  
Dew Point 0 °F    
Average Humidity 63    
Maximum Humidity 75    
Minimum Humidity 53    
Precipitation  
Precipitation 0.00 in - - ()
Sea Level Pressure  
Sea Level Pressure 29.82 in    
Wind  
Wind Speed 13 mph (West)    
Max Wind Speed 22 mph    
Max Gust Speed 30 mph    
Visibility 10 miles    
Events      
Averages and records for this station are not official NWS values.
T = Trace of Precipitation, MM = Missing Value Source: NWS Daily Summary

Daily Weather History Graph

Daily Weather History Graph

Search for Another Location

Airport or City:

Trip Planner

Search our weather history database for the weather conditions in past years. The results will help you decide how hot, cold, wet, or windy it might be!

Date:

Astronomy

Feb. 22, 2014 Rise Set
Actual Time 7:00 AM CST 5:43 PM CST
Civil Twilight 6:29 AM CST 6:14 PM CST
Nautical Twilight 5:54 AM CST 6:49 PM CST
Astronomical Twilight 5:19 AM CST 7:24 PM CST
Moon 1:04 AM CST (2/22) 10:45 AM CST (2/22)
Length of Visible Light 11h 44m
Length of Day
10h 43m
Waning Gibbous, 50% of the Moon is Illuminated
Feb 22
Waning Gibbous
Mar 1
New
Mar 8
First Quarter
Mar 16
Full
Mar 23
Last Quarter

Hourly Weather History & Observations

Time (CST) Temp. Windchill Dew Point Humidity Pressure Visibility Wind Dir Wind Speed Gust Speed Precip Events Conditions
12:15 AM 7.7 °F -7.4 °F -0.4 °F 70% 29.63 in 10.0 mi West 11.5 mph 20.7 mph N/A   Overcast
12:35 AM 7.3 °F -4.1 °F -0.8 °F 69% 29.64 in 10.0 mi West 6.9 mph 16.1 mph N/A   Scattered Clouds
12:55 AM 6.8 °F -8.6 °F -0.9 °F 71% 29.64 in 10.0 mi WSW 11.5 mph 16.1 mph N/A   Scattered Clouds
1:15 AM 6.8 °F -8.6 °F -0.8 °F 71% 29.65 in 10.0 mi WSW 11.5 mph 16.1 mph N/A   Scattered Clouds
1:35 AM 6.4 °F -7.3 °F -0.8 °F 72% 29.65 in 10.0 mi WSW 9.2 mph 16.1 mph N/A   Scattered Clouds
1:55 AM 6.4 °F -6.3 °F -0.8 °F 72% 29.66 in 10.0 mi SW 8.1 mph - N/A   Mostly Cloudy
2:15 AM 5.5 °F -6.3 °F -0.9 °F 75% 29.66 in 10.0 mi SW 6.9 mph - N/A   Overcast
2:35 AM 5.7 °F -4.8 °F -0.6 °F 75% 29.67 in 10.0 mi SW 5.8 mph - N/A   Overcast
2:55 AM 6.8 °F -7.8 °F -0.4 °F 72% 29.67 in 10.0 mi WSW 10.4 mph - N/A   Mostly Cloudy
3:15 AM 7.7 °F -4.8 °F -0.0 °F 71% 29.68 in 10.0 mi WSW 8.1 mph 16.1 mph N/A   Mostly Cloudy
3:35 AM 8.4 °F -7.3 °F 0.3 °F 70% 29.68 in 10.0 mi West 12.7 mph 17.3 mph N/A   Overcast
3:55 AM 8.4 °F -9.2 °F 0.3 °F 70% 29.69 in 10.0 mi West 16.1 mph 23.0 mph N/A   Overcast
4:15 AM 8.6 °F -7.0 °F 0.3 °F 69% 29.70 in 10.0 mi West 12.7 mph 20.7 mph N/A   Overcast
4:35 AM 8.4 °F -8.6 °F 0.3 °F 70% 29.71 in 10.0 mi West 15.0 mph 24.2 mph N/A   Overcast
4:55 AM 8.2 °F -6.8 °F 0.1 °F 70% 29.72 in 10.0 mi West 11.5 mph 19.6 mph N/A   Overcast
5:15 AM 8.2 °F -8.8 °F 0.1 °F 70% 29.73 in 10.0 mi West 15.0 mph 19.6 mph N/A   Overcast
5:35 AM 7.9 °F -8.6 °F -0.4 °F 69% 29.73 in 10.0 mi West 13.8 mph 18.4 mph N/A   Overcast
5:55 AM 7.7 °F -8.2 °F -0.6 °F 69% 29.74 in 10.0 mi West 12.7 mph 19.6 mph N/A   Overcast
6:15 AM 7.3 °F -6.2 °F -0.9 °F 69% 29.75 in 10.0 mi West 9.2 mph 16.1 mph N/A   Overcast
6:35 AM 6.8 °F -7.8 °F -1.3 °F 69% 29.75 in 10.0 mi West 10.4 mph 17.3 mph N/A   Overcast
6:55 AM 6.4 °F -6.3 °F -1.3 °F 71% 29.76 in 10.0 mi WSW 8.1 mph - N/A   Overcast
7:15 AM 5.7 °F -8.2 °F -1.8 °F 71% 29.77 in 10.0 mi SW 9.2 mph - N/A   Overcast
7:35 AM 4.5 °F -9.8 °F -2.7 °F 72% 29.78 in 10.0 mi WSW 9.2 mph - N/A   Overcast
7:55 AM 3.7 °F -10.6 °F -3.6 °F 71% 29.79 in 10.0 mi WSW 9.2 mph - N/A   Scattered Clouds
8:15 AM 4.5 °F -8.7 °F -3.5 °F 70% 29.79 in 10.0 mi WSW 8.1 mph - N/A   Clear
8:35 AM 5.2 °F -8.9 °F -3.5 °F 68% 29.80 in 10.0 mi WSW 9.2 mph 17.3 mph N/A   Clear
8:55 AM 6.1 °F -10.9 °F -3.3 °F 65% 29.81 in 10.0 mi West 13.8 mph - N/A   Scattered Clouds
9:15 AM 6.8 °F -10.7 °F -3.3 °F 63% 29.81 in 10.0 mi West 15.0 mph 21.9 mph N/A   Clear
9:35 AM 7.7 °F -6.6 °F -2.9 °F 62% 29.81 in 10.0 mi West 10.4 mph 21.9 mph N/A   Clear
9:55 AM 8.6 °F -7.0 °F -2.9 °F 60% 29.81 in 10.0 mi West 12.7 mph 19.6 mph N/A   Clear
10:15 AM 9.1 °F -8.2 °F -2.4 °F 60% 29.81 in 10.0 mi West 16.1 mph 23.0 mph N/A   Clear
10:35 AM 10.0 °F -5.9 °F -2.2 °F 58% 29.82 in 10.0 mi West 13.8 mph 23.0 mph N/A   Scattered Clouds
10:55 AM 10.6 °F -3.8 °F -2.0 °F 57% 29.82 in 7.0 mi West 11.5 mph 23.0 mph N/A   Scattered Clouds
11:15 AM 11.3 °F -7.0 °F -1.7 °F 56% 29.82 in 7.0 mi WNW 19.6 mph 24.2 mph N/A   Clear
11:35 AM 12.2 °F -4.3 °F -0.8 °F 56% 29.82 in 10.0 mi West 16.1 mph 26.5 mph N/A   Clear
11:55 AM 12.9 °F -3.4 °F -0.4 °F 55% 29.82 in 10.0 mi West 16.1 mph 24.2 mph N/A   Clear
12:15 PM 13.6 °F 0.0 °F 0.3 °F 55% 29.82 in 10.0 mi West 11.5 mph 23.0 mph N/A   Clear
12:35 PM 14.4 °F -2.5 °F 0.9 °F 55% 29.82 in 10.0 mi West 18.4 mph 24.2 mph N/A   Clear
12:55 PM 14.9 °F 1.6 °F 1.2 °F 55% 29.82 in 10.0 mi West 11.5 mph 23.0 mph N/A   Clear
1:15 PM 15.4 °F 1.0 °F 1.4 °F 54% 29.82 in 10.0 mi West 13.8 mph 21.9 mph N/A   Clear
1:35 PM 15.4 °F 0.4 °F 2.3 °F 56% 29.82 in 7.0 mi West 15.0 mph 25.3 mph N/A   Clear
1:55 PM 15.8 °F -0.6 °F 2.1 °F 55% 29.83 in 7.0 mi West 18.4 mph 25.3 mph N/A   Scattered Clouds
2:15 PM 16.2 °F -0.6 °F 2.3 °F 54% 29.83 in 7.0 mi West 19.6 mph 27.6 mph N/A   Clear
2:35 PM 16.5 °F -1.0 °F 2.7 °F 55% 29.83 in 7.0 mi West 21.9 mph 28.8 mph N/A   Clear
2:55 PM 17.2 °F 1.7 °F 2.8 °F 53% 29.83 in 10.0 mi West 17.3 mph 26.5 mph N/A   Clear
3:15 PM 17.4 °F 2.9 °F 3.2 °F 54% 29.84 in 10.0 mi West 15.0 mph 25.3 mph N/A   Clear
3:35 PM 17.6 °F 0.9 °F 3.0 °F 53% 29.85 in 10.0 mi West 20.7 mph 26.5 mph N/A   Clear
3:55 PM 17.4 °F 2.9 °F 3.0 °F 53% 29.84 in 10.0 mi WSW 15.0 mph 23.0 mph N/A   Clear
4:15 PM 17.2 °F 1.7 °F 2.8 °F 53% 29.85 in 10.0 mi WSW 17.3 mph 23.0 mph N/A   Clear
4:35 PM 17.2 °F 3.3 °F 3.0 °F 54% 29.85 in 10.0 mi West 13.8 mph - N/A   Clear
4:55 PM 16.7 °F 2.0 °F 2.7 °F 54% 29.86 in 10.0 mi West 15.0 mph 21.9 mph N/A   Clear
5:15 PM 16.2 °F 1.9 °F 2.3 °F 54% 29.86 in 10.0 mi West 13.8 mph 21.9 mph N/A   Clear
5:35 PM 15.4 °F 1.6 °F 2.1 °F 56% 29.87 in 10.0 mi West 12.7 mph - N/A   Clear
5:55 PM 15.3 °F -0.4 °F 1.8 °F 55% 29.88 in 10.0 mi West 16.1 mph 24.2 mph N/A   Clear
6:15 PM 14.4 °F -3.4 °F 1.4 °F 56% 29.89 in 10.0 mi WNW 20.7 mph 29.9 mph N/A   Scattered Clouds
6:35 PM 13.6 °F -4.4 °F 0.7 °F 56% 29.90 in 10.0 mi WNW 20.7 mph 28.8 mph N/A   Clear
6:55 PM 12.9 °F -4.9 °F 0.1 °F 57% 29.91 in 10.0 mi WNW 19.6 mph 28.8 mph N/A   Scattered Clouds
7:15 PM 12.4 °F -5.6 °F -0.4 °F 57% 29.92 in 10.0 mi West 19.6 mph 26.5 mph N/A   Clear
7:35 PM 11.8 °F -5.3 °F -0.8 °F 57% 29.93 in 10.0 mi West 17.3 mph 25.3 mph N/A   Clear
7:55 PM 10.9 °F -6.5 °F -0.9 °F 59% 29.93 in 10.0 mi West 17.3 mph 28.8 mph N/A   Clear
8:15 PM 10.2 °F -8.9 °F -1.3 °F 60% 29.94 in 10.0 mi WNW 20.7 mph 28.8 mph N/A   Clear
8:35 PM 9.3 °F -10.5 °F -1.3 °F 62% 29.95 in 10.0 mi West 21.9 mph 29.9 mph N/A   Clear
8:55 PM 8.6 °F -10.0 °F -1.3 °F 64% 29.95 in 10.0 mi WNW 18.4 mph 26.5 mph N/A   Clear
9:15 PM 8.1 °F -10.7 °F -2.0 °F 64% 29.96 in 10.0 mi WNW 18.4 mph 23.0 mph N/A   Clear
9:35 PM 7.7 °F -11.2 °F -2.0 °F 65% 29.97 in 10.0 mi WNW 18.4 mph 25.3 mph N/A   Clear
9:55 PM 7.2 °F -10.2 °F -2.2 °F 66% 29.98 in 10.0 mi WNW 15.0 mph 29.9 mph N/A   Clear
10:15 PM 6.6 °F -10.2 °F -2.6 °F 66% 29.98 in 10.0 mi West 13.8 mph 23.0 mph N/A   Clear
10:35 PM 6.4 °F -9.0 °F -2.6 °F 67% 29.99 in 10.0 mi West 11.5 mph 18.4 mph N/A   Scattered Clouds
10:55 PM 6.3 °F -10.0 °F -2.4 °F 68% 29.99 in 10.0 mi West 12.7 mph 26.5 mph N/A   Mostly Cloudy
11:15 PM 6.4 °F -8.2 °F -2.4 °F 67% 29.99 in 10.0 mi West 10.4 mph 18.4 mph N/A   Overcast
11:35 PM 6.1 °F -9.5 °F -2.4 °F 68% 30.00 in 10.0 mi West 11.5 mph - N/A   Mostly Cloudy
11:55 PM 5.9 °F -8.9 °F -2.7 °F 68% 30.00 in 10.0 mi West 10.4 mph 17.3 mph N/A   Scattered Clouds